Weather History for KVIH - February, 2014

Change the Weather History Date:

Wednesday, February 26, 2014

  Actual Average Record
Temperature  
Mean Temperature 16 °F 39 °F  
Max Temperature 26 °F 49 °F 75 °F (1996)
Min Temperature 6 °F 29 °F 4 °F (1963)
Degree Days  
Heating Degree Days 49 26  
Month to date heating degree days 947 771  
Since 1 July heating degree days 4235 3739  
Cooling Degree Days 0 0  
Month to date cooling degree days 0 0  
Year to date cooling degree days 0 0  
Moisture  
Dew Point 4 °F    
Average Humidity 60    
Maximum Humidity 84    
Minimum Humidity 36    
Precipitation  
Precipitation T in 0.08 in 1.30 in (1977)
Month to date precipitation 0.61 1.78  
Year to date precipitation 1.46 3.95  
Sea Level Pressure  
Sea Level Pressure 30.23 in    
Wind  
Wind Speed 10 mph (WNW)    
Max Wind Speed 20 mph    
Max Gust Speed 26 mph    
Visibility 8 miles    
Events Snow    
T = Trace of Precipitation, MM = Missing Value Source: NWS Daily Summary

Daily Weather History Graph

Daily Weather History Graph

Search for Another Location

Airport or City:

Trip Planner

Search our weather history database for the weather conditions in past years. The results will help you decide how hot, cold, wet, or windy it might be!

Date:

Astronomy

Feb. 26, 2014 Rise Set
Actual Time 6:43 AM CST 5:57 PM CST
Civil Twilight 6:16 AM CST 6:23 PM CST
Nautical Twilight 5:45 AM CST 6:54 PM CST
Astronomical Twilight 5:15 AM CST 7:25 PM CST
Moon 4:27 AM CST (2/26) 3:14 PM CST (2/26)
Length of Visible Light 12h 07m
Length of Day
11h 14m
Waning Crescent, 10% of the Moon is Illuminated
Feb 26
Waning Crescent
Mar 1
New
Mar 8
First Quarter
Mar 16
Full
Mar 23
Last Quarter

Hourly Weather History & Observations

Time (CST) Temp. Windchill Dew Point Humidity Pressure Visibility Wind Dir Wind Speed Gust Speed Precip Events Conditions
12:41 AM 16.0 °F 1.1 °F 9.0 °F 74% 30.32 in 2.5 mi NNW 15.0 mph 25.3 mph 0.00 in Snow Light Snow
12:49 AM 15.8 °F 1.4 °F 8.6 °F 73% 30.31 in 3.0 mi NNW 13.8 mph 24.2 mph 0.00 in Snow Light Snow
12:53 AM 15.1 °F 0.5 °F 9.0 °F 77% 30.36 in 3.0 mi NNW 13.8 mph - 0.00 in Snow Light Snow
12:59 AM 15.1 °F 0.5 °F 10.0 °F 80% 30.31 in 2.5 mi NNW 13.8 mph - 0.00 in Snow Light Snow
1:11 AM 15.1 °F 3.3 °F 10.9 °F 84% 30.31 in 1.0 mi NW 9.2 mph - 0.00 in Snow Light Snow
1:26 AM 14.0 °F -1.4 °F 10.0 °F 84% 30.31 in 2.0 mi NNW 15.0 mph - 0.00 in Snow Light Snow
1:48 AM 12.2 °F -2.5 °F 8.6 °F 85% 30.31 in 3.0 mi NNW 12.7 mph - 0.00 in Snow Light Snow
1:53 AM 12.9 °F 0.7 °F 9.0 °F 84% 30.35 in 4.0 mi NW 9.2 mph - 0.00 in Snow Light Snow
2:53 AM 14.0 °F -2.5 °F 1.9 °F 59% 30.34 in 10.0 mi NNW 17.3 mph 21.9 mph 0.00 in   Overcast
3:53 AM 12.9 °F -2.2 °F 1.9 °F 62% 30.32 in 10.0 mi North 13.8 mph - N/A   Clear
4:53 AM 10.9 °F -1.8 °F 1.0 °F 64% 30.34 in 10.0 mi NNW 9.2 mph - N/A   Clear
5:40 AM 10.0 °F -2.9 °F 1.0 °F 67% 30.28 in 10.0 mi NW 9.2 mph - N/A   Mostly Cloudy
5:53 AM 10.9 °F 0.2 °F 1.0 °F 64% 30.34 in 10.0 mi NW 6.9 mph 18.4 mph N/A   Overcast
6:34 AM 8.1 °F -6.2 °F -0.9 °F 67% 30.26 in 10.0 mi NNW 10.4 mph - N/A   Scattered Clouds
6:53 AM 7.0 °F -5.7 °F -2.0 °F 67% 30.34 in 10.0 mi NNW 8.1 mph - N/A   Clear
7:53 AM 9.0 °F -5.9 °F -0.9 °F 64% 30.35 in 10.0 mi North 11.5 mph - N/A   Clear
8:53 AM 10.0 °F -1.9 °F -0.0 °F 64% 30.35 in 10.0 mi NW 8.1 mph - N/A   Clear
9:53 AM 14.0 °F 2.9 °F 1.9 °F 59% 30.34 in 10.0 mi NNW 8.1 mph - N/A   Clear
10:53 AM 15.1 °F 5.2 °F -0.0 °F 51% 30.32 in 10.0 mi NNW 6.9 mph - N/A   Clear
11:53 AM 16.0 °F 5.3 °F 1.0 °F 52% 30.28 in 10.0 mi SSW 8.1 mph - N/A   Clear
12:53 PM 19.0 °F 10.0 °F 3.9 °F 52% 30.23 in 10.0 mi West 6.9 mph - N/A   Clear
1:53 PM 21.9 °F 9.8 °F 1.9 °F 42% 30.18 in 10.0 mi West 12.7 mph 19.6 mph N/A   Clear
2:53 PM 24.1 °F 13.7 °F 3.0 °F 40% 30.14 in 10.0 mi West 10.4 mph 18.4 mph N/A   Clear
3:53 PM 25.0 °F 12.6 °F 3.0 °F 39% 30.10 in 10.0 mi West 15.0 mph 19.6 mph N/A   Clear
4:53 PM 25.0 °F 14.8 °F 1.9 °F 37% 30.08 in 10.0 mi WNW 10.4 mph - N/A   Clear
5:53 PM 24.1 °F 13.7 °F 1.9 °F 38% 30.06 in 10.0 mi West 10.4 mph - N/A   Clear
6:53 PM 19.0 °F 9.0 °F 3.9 °F 52% 30.05 in 10.0 mi SW 8.1 mph - N/A   Clear
7:53 PM 21.9 °F 10.4 °F 3.9 °F 46% 30.04 in 10.0 mi WSW 11.5 mph - N/A   Clear
8:53 PM 19.9 °F 9.3 °F 3.9 °F 50% 30.04 in 10.0 mi WSW 9.2 mph - N/A   Clear
9:53 PM 19.9 °F 8.6 °F 3.9 °F 50% 30.03 in 10.0 mi WSW 10.4 mph - N/A   Clear
10:53 PM 19.9 °F 7.9 °F 3.9 °F 50% 30.01 in 10.0 mi WSW 11.5 mph - N/A   Clear
11:53 PM 19.9 °F 7.3 °F 5.0 °F 52% 30.01 in 10.0 mi WSW 12.7 mph - N/A   Clear